Location: Fort Worth, Tx
(32.7431°N, 97.3695°W)
Time: 05:17:12
(UTC-05:00)

Altair - Pass Details

Date: 04 October 2023
Orbit: 1501 x 1682 km, 47.2° (Epoch: 06 December)

Event Time Altitude Azimuth Distance (km) Brightness Sun altitude
Rises 02:59:32 0° 233° (SW) 4,690 - -60.0°
Reaches altitude 10° 03:02:31 10° 233° (SW) 3,730 - -59.7°
Maximum altitude 03:12:03 85° 323° (NW) 1,606 - -58.9°
Exits shadow 03:19:43 19° 51° (NE) 3,180 9.3 -58.1°
Drops below altitude 10° 03:22:00 10° 52° (NE) 3,885 9.9 -57.9°
Sets 03:25:12 0° 53° (NE) 4,893 10.6 -57.5°
